This is the latest recevied weather packets stored in our database for station/object IZ2PAG-10. If no packets are shown the sender has not sent any weather packets the latest 10 day(s).
| Time | Temp. | Humidity | Pressure | Rain* | Wind** | Luminosity | Snow |
|---|---|---|---|---|---|---|---|
| 1777804146 | 18.89° C | 47% | 1019.4 hPa | - | - | - | - |
| 1777802431 | 18.89° C | 44% | 1019.5 hPa | - | - | - | - |
| 1777802346 | 18.89° C | 44% | 1019.5 hPa | - | - | - | - |
| 1777800546 | 18.89° C | 44% | 1019.7 hPa | - | - | - | - |
| 1777798793 | 18.89° C | 45% | 1019.8 hPa | - | - | - | - |
| 1777798746 | 18.89° C | 45% | 1019.8 hPa | - | - | - | - |
| 1777796980 | 18.89° C | 45% | 1020 hPa | - | - | - | - |
| 1777796945 | 18.89° C | 45% | 1020 hPa | - | - | - | - |
| 1777795179 | 18.33° C | 46% | 1019.9 hPa | - | - | - | - |
| 1777795144 | 18.33° C | 46% | 1019.9 hPa | - | - | - | - |
| 1777793381 | 18.33° C | 47% | 1020 hPa | - | - | - | - |
| 1777793344 | 18.33° C | 47% | 1020 hPa | - | - | - | - |
| 1777791581 | 18.33° C | 49% | 1020.1 hPa | - | - | - | - |
| 1777791544 | 18.33° C | 49% | 1020.1 hPa | - | - | - | - |
| 1777789775 | 17.78° C | 50% | 1020.1 hPa | - | - | - | - |
| 1777789743 | 17.78° C | 50% | 1020.1 hPa | - | - | - | - |
| 1777787943 | 17.22° C | 54% | 1020.1 hPa | - | - | - | - |
| 1777786178 | 16.67° C | 59% | 1020 hPa | - | - | - | - |
| 1777786143 | 16.67° C | 59% | 1020 hPa | - | - | - | - |
| 1777784343 | 16.67° C | 59% | 1020.1 hPa | - | - | - | - |
| 1777782543 | 16.67° C | 59% | 1020.2 hPa | - | - | - | - |
| 1777780742 | 16.67° C | 59% | 1020 hPa | - | - | - | - |
| 1777778942 | 16.67° C | 59% | 1020.2 hPa | - | - | - | - |
| 1777777179 | 16.67° C | 59% | 1020.3 hPa | - | - | - | - |
| 1777777142 | 16.67° C | 59% | 1020.3 hPa | - | - | - | - |
* Rain since midnight (hover to see other rain measurements)
** Current wind speed in m/s (hover to see current wind gust speed)